Regional Weather Roundup
Issued by NWS

Home | Current Version | Previous Version | Text Only | Print | Product List | Glossary Off
Versions: 1 2 3 4 5 6 7 8 9 10 11 12 13 14 15 16 17 18 19 20 21 22 23 24 25 26 27 28 29 30 31 32 33 34 35 36 37 38 39 40 41 42 43 44 45 46 47 48 49 50

000
ASUS43 KIND 220159
RWRIN

WEATHER ROUNDUP FOR INDIANA
NATIONAL WEATHER SERVICE INDIANAPOLIS IN
900 PM EST TUE FEB 21 2017

NOTE: "FAIR" INDICATES FEW OR NO CLOUDS BELOW 12,000 FEET WITH NO
SIGNIFICANT WEATHER AND/OR OBSTRUCTIONS TO VISIBILITY.

* - STATION DOES NOT REPORT WEATHER SUCH AS PRECIPITATION OR FOG.

+ - STATION NOT QUALITY CONTROLLED BY THE NATIONAL WEATHER SERVICE.
    USE DATA WITH CAUTION...ESPECIALLY DEWPOINT AND RELATIVE
    HUMIDITY OBSERVATIONS.

INZ001>003-010>013-019-020-220300-
NORTHWEST INDIANA

CITY           SKY/WX    TMP DP  RH WIND       PRES   REMARKS
GARY /AIRPORT/ MOCLDY    52  48  87 CALM      29.91F
KNOX *+        PTCLDY    50  36  57 S5        29.92S
LA PORTE +     PTCLDY    49  47  95 CALM      29.93S
MICHIGAN CITY+ CLOUDY    52  52 100 CALM      29.92S FOG
RENSSELAER +   MOCLDY    57  54  88 CALM      29.93R

$$

LMZ046-743>745-220300-
SOUTHERN LAKE MICHIGAN

STATION/POSITION TIME  TEMP    WIND        PRES    WAVE
                       AIR SEA DIR/SP/G            HT
                 (UTC) (F)     (DEG/KT/KT) (MB)    (FT)
BURNS HARBOR     0140   58     180/  6/  8 1013.2F
MICHIGAN CITY    0130   57     120/  4/  4   N/A

$$

INZ004-005-014>016-021>024-220300-
NORTH CENTRAL INDIANA

CITY           SKY/WX    TMP DP  RH WIND       PRES   REMARKS
ELKHART        CLEAR     52  48  87 SE3       29.92F
GOSHEN         PTCLDY    48  45  89 SE3       29.93S FOG
SOUTH BEND     PTCLDY    50  48  93 S5        29.93F
WARSAW +       CLOUDY    54  48  82 CALM      29.93S

$$

INZ006>009-017-018-025>027-220300-
NORTHEAST INDIANA

CITY           SKY/WX    TMP DP  RH WIND       PRES   REMARKS
ANGOLA *+      CLOUDY    46  46 100 CALM      29.93F
AUBURN +       MOCLDY    50  46  87 CALM      29.95S
FORT WAYNE     CLOUDY    51  46  83 CALM      29.95S
KENDALLVILLE + MOCLDY    48  46  91 CALM      29.93F

$$

INZ028-029-035-036-043>045-051>053-220300-
WEST CENTRAL INDIANA

CITY           SKY/WX    TMP DP  RH WIND       PRES   REMARKS
LAFAYETTE      CLOUDY    53  50  89 CALM      29.93S
TERRE HAUTE    CLOUDY    57  52  83 S7        29.95R

$$

INZ030>032-037>040-046>048-054>057-064-065-220300-
CENTRAL INDIANA

CITY           SKY/WX    TMP DP  RH WIND       PRES   REMARKS
CP ATTERBURY + CLOUDY    54  52  94 CALM      29.97S
COLUMBUS       CLOUDY    54  54 100 CALM      29.97S
FRANKFORT +    CLOUDY    54  50  86 CALM      29.96S
GREENWOOD *+   CLOUDY    57  55  93 S8        29.97S
INDIANAPOLIS   CLOUDY    57  53  86 S7        29.95S
-EAGLE CREEK   CLOUDY    59  52  77 S6        29.94S
KOKOMO +       PTCLDY    50  48  93 S3        29.95S
MT COMFORT *+  CLOUDY    55  52  88 S5        29.97R
SHELBYVILLE    CLOUDY    56  53  90 SE8       29.96S FOG

$$

INZ033-034-041-042-049-050-058-059-220300-
EAST CENTRAL INDIANA

CITY           SKY/WX    TMP DP  RH WIND       PRES   REMARKS
MUNCIE         CLOUDY    59  51  75 S8        29.96R

$$

INZ060-061-067>069-081>083-085>088-220300-
SOUTHWEST INDIANA

CITY           SKY/WX    TMP DP  RH WIND       PRES   REMARKS
EVANSVILLE     CLOUDY    62  54  74 CALM      29.94S
HUNTINGBURG *+ CLOUDY    60  55  83 SE6       29.94S

$$

INZ062-063-066-070>080-084-089>092-220300-
SOUTH CENTRAL AND SOUTHEAST INDIANA

CITY           SKY/WX    TMP DP  RH WIND       PRES   REMARKS
BLOOMINGTON    CLOUDY    55  52  89 SE3       29.96S
MADISON *+     CLOUDY    55  54  94 SE8       30.00S
SEYMOUR +      LGT RAIN  55  55 100 SE5       29.98R

$$




USA.gov is the U.S. government's official web portal to all federal, state and local government web resources and services.